Regional Weather Roundup
Issued by NWS Grand Forks, ND

Home | Current Version | Previous Version | Graphics & Text | Print | Product List | Glossary On
Versions: 1 2 3 4 5 6 7 8 9 10 11 12 13 14 15 16 17 18 19 20 21 22 23 24 25 26 27 28 29 30 31 32 33 34 35 36 37 38 39 40 41 42 43 44 45 46 47 48 49 50
000
ASUS43 KFGF 231831
RWRFGF
PRAIRIE TO PINES  WEATHER ROUNDUP
NATIONAL WEATHER SERVICE EASTERN NORTH DAKOTA/GRAND FORKS ND
1200 PM CST SUN NOV 23 2014

 **SATELLITE DATA USED TO AUGMENT SKY COVER AT AUTOMATED STATIONS**
 *****  WEATHER ACROSS EASTERN NORTH DAKOTA  *****

CITY           SKY/WX    TMP DP  RH WIND       PRES   REMARKS
GRAND FORKS    NOT AVBL
GRAND FRKS AFB CLOUDY    41  32  70 NW20G26   29.42R
GRAND FRKS NWS   N/A     39 N/A N/A NW20        N/A
DEVILS LAKE    CLOUDY    28  16  59 W16       29.43R WCI  17
6HR MIN TEMP:  30; 6HR MAX TEMP:  37;

FARGO          CLOUDY    44  35  70 W12       29.44S
WAHPETON ARPT  CLOUDY    37  34  87 W12       29.46F
$$

 ***** WEATHER ACROSS CENTRAL AND WESTERN NORTH DAKOTA  *****

CITY           SKY/WX    TMP DP  RH WIND       PRES   REMARKS
BISMARCK       CLOUDY    27  16  63 NW21G35   29.58R WCI  13
6HR MIN TEMP:  27; 6HR MAX TEMP:  39;

MINOT          LGT SNOW  20  13  74 NW20G30   29.56R WCI   4
6HR MIN TEMP:  20; 6HR MAX TEMP:  37; 6HR PCP: TRACE;

JAMESTOWN      CLOUDY    31  20  63 W22G30    29.48R WCI  18
6HR MIN TEMP:  32; 6HR MAX TEMP:  40;

MINOT AFB      FLURRIES  19  14  79 NW26G33   29.57R WCI   1
GARRISON         N/A     22  15  75 NW31G40   29.56R WCI   4
WILLISTON      CLOUDY    18   9  68 NW24G35   29.72R WCI   0
6HR MIN TEMP:  18; 6HR MAX TEMP:  24; 6HR PCP:  0.01;

DICKINSON      CLOUDY    24  16  71 NW31G44   29.61R WCI   7
6HR MIN TEMP:  24; 6HR MAX TEMP:  35; 6HR PCP: TRACE;

HETTINGER      CLOUDY    27  19  72 NW33G44   29.63R WCI  10
6HR MIN TEMP:  27; 6HR MAX TEMP:  36; 6HR PCP: TRACE;

$$

 *****  OTHER AIRPORT OBSERVATIONS IN OUR AREA  *****

CITY           SKY/WX    TMP DP  RH WIND       PRES   REMARKS
WALHALLA         N/A     23  23 100 NW20      29.46R WCI   8
GRAFTON AIRPOR CLOUDY    32  28  86 N13       29.43R FOG     WCI  22
VALLEY CITY AR FLURRIES  32  23  69 NW21G26   29.47S WCI  20
CANDO          CLOUDY    28  19  69 NW10      29.44R WCI  19
CAVALIER APRT  MIX PCPN  25  25 100 N18G24    29.44R WCI  11
GWINNER        CLOUDY    39  32  75 W26G33    29.48S
SHEYENNE NWR     N/A     42  34  74 W13       29.95
ROLLA          FAIR      18  18 100 N18       29.46R WCI   2
 ***** THE ABOVE OBSERVATIONS ARE NON NWS ARE NOT QUALITY
       CONTROLLED AND MAY MIS-REPORT RAIN FOR SNOW...
$$

  *****  WEATHER ACROSS NORTHERN MINNESOTA  *****

CITY           SKY/WX    TMP DP  RH WIND       PRES   REMARKS
FLAG ISLAND    FOG       34  32  93 S9        29.38R VSB<1/4
WARROAD        CLOUDY    36  32  87 SW5       29.38S FOG
ROSEAU         CLOUDY    37  32  81 SW7       29.38F
HALLOCK        CLOUDY    30  28  93 NW13      29.42R FOG     WCI  20
THF RVR FALLS  CLOUDY    37  34  87 SW8       29.40S
6HR MIN TEMP:  32; 6HR MAX TEMP:  37;

BAUDETTE       CLOUDY    35  33  92 S6        29.38S FOG
6HR MIN TEMP:  33; 6HR MAX TEMP:  35;

WASKISH        CLOUDY    37  36  93 CALM      29.39F FOG
CROOKSTON      PTSUNNY   43  36  75 NW10      29.41S
STEPHEN NDAWN    N/A     36  30  80 N10         N/A
GREENBUSH NDAW   N/A     37  32  81 W8          N/A
$$
  *****  WEATHER ACROSS CENTRAL AND WEST MINNESOTA  *****

CITY           SKY/WX    TMP DP  RH WIND       PRES   REMARKS
FOSSTON        CLOUDY    36  34  93 S8        29.41F
BEMIDJI        CLOUDY    36  33  87 CALM      29.40S
PARK RAPIDS    CLOUDY    40  34  79 W8        29.42F
6HR MIN TEMP:  31; 6HR MAX TEMP:  40; 6HR PCP: TRACE;

ELBOW LAKE       N/A     37  36  97 W8        29.46F
WADENA         CLOUDY    37  34  87 SW5       29.43S
DETROIT LAKES  CLOUDY    39  34  81 W3        29.44S
MOORHEAD       CLOUDY    43  39  87 W12       29.45S
FERGUS FALLS   CLOUDY    37  37 100 W6        29.48S
MORRIS MN      DRIZZLE   37  36  93 W9        29.47F
STAPLES        CLOUDY    37  34  87 W6        29.43F
$$
  *****  WEATHER ELSEWHERE ACROSS MINNESOTA  *****

CITY           SKY/WX    TMP DP  RH WIND       PRES   REMARKS
DULUTH         CLOUDY    39  37  92 W5        29.40F FOG
6HR MIN TEMP:  35; 6HR MAX TEMP:  39;

INTRNTL FALLS  CLOUDY    36  33  89 S3        29.41R
6HR MIN TEMP:  32; 6HR MAX TEMP:  36;

ELY            CLOUDY    37  36  93 SW6       29.39S FOG
CLOQUET        CLOUDY    39  37  93 SW5       29.40F FOG
WHEATON        CLOUDY    37  32  81 W9        29.49F
BRAINERD       LGT RAIN  36  35  96 W5        29.43F FOG
6HR MIN TEMP:  33; 6HR MAX TEMP:  36; 6HR PCP: TRACE;

HIBBING        CLOUDY    37  34  89 VRB3      29.39F FOG
ALEXANDRIA     CLOUDY    37  33  85 W10       29.46S
6HR MIN TEMP:  34; 6HR MAX TEMP:  38; 6HR PCP: TRACE;

SAINT CLOUD    CLOUDY    38  34  85 NW8       29.42F
6HR MIN TEMP:  36; 6HR MAX TEMP:  40; 6HR PCP:  0.01;

MINNEAPOLIS    CLOUDY    47  46  97 NW6       29.41F FOG
6HR MIN TEMP:  47; 6HR MAX TEMP:  50; 6HR PCP: TRACE;

$$

  *****  WEATHER ACROSS SOUTH DAKOTA  *****

CITY           SKY/WX    TMP DP  RH WIND       PRES   REMARKS
SIOUX FALLS    CLOUDY    40  36  86 NW21      29.53F
6HR MIN TEMP:  39; 6HR MAX TEMP:  42; 6HR PCP:  0.13;

BROOKINGS      NOT AVBL
WATERTOWN      CLOUDY    38  31  76 W15G22    29.51F
6HR MIN TEMP:  37; 6HR MAX TEMP:  39;

HURON          CLOUDY    40  32  73 W17       29.58S
6HR MIN TEMP:  37; 6HR MAX TEMP:  41;

SISSETON         N/A     40  33  76 NW21      29.47F
ABERDEEN       CLOUDY    39  31  72 W15G23    29.55S
6HR MIN TEMP:  38; 6HR MAX TEMP:  40;

MITCHELL       NOT AVBL
PIERRE         CLOUDY    41  29  62 NW18      29.62F
6HR MIN TEMP:  36; 6HR MAX TEMP:  42;

MOBRIDGE       PTSUNNY   38  26  62 NW30G38   29.58R
RAPID CITY     SUNNY     43  19  38 NW36G55   29.70R
6HR MIN TEMP:  35; 6HR MAX TEMP:  43;

$$

  *****  SOME WEATHER IN NEARBY STATES *****

CITY           SKY/WX    TMP DP  RH WIND       PRES   REMARKS
GLASGOW MT     CLOUDY    26  16  65 NW25G32   29.82R WCI  11
6HR MIN TEMP:  24; 6HR MAX TEMP:  28; 6HR PCP:  0.01;

GREAT FALLS MT SUNNY     41  17  38 W26G32    29.90S
6HR MIN TEMP:  24; 6HR MAX TEMP:  41;

CHEYENNE WY    MOSUNNY   35  10  35 N33G45    29.77S WCI  21
6HR MIN TEMP:  27; 6HR MAX TEMP:  36;

SCOTTSBLUFF NE SUNNY     44  15  31 N29G41    29.78S
6HR MIN TEMP:  24; 6HR MAX TEMP:  44;

OMAHA NE       CLOUDY    49  39  68 N28G37    29.47S
6HR MIN TEMP:  48; 6HR MAX TEMP:  54; 6HR PCP: TRACE;

DES MOINES IA  LGT RAIN  53  51  93 CALM      29.42F FOG
6HR MIN TEMP:  53; 6HR MAX TEMP:  53; 6HR PCP:  0.02;

DAVENPORT IA   LGT RAIN  50  47  89 SE14      29.48F FOG
6HR MIN TEMP:  49; 6HR MAX TEMP:  50; 6HR PCP:  0.74;

CHICAGO IL     CLOUDY    52  47  83 S13       29.61F
6HR MIN TEMP:  48; 6HR MAX TEMP:  52; 6HR PCP:  0.02;

EAU CLAIRE WI  CLOUDY    49  48  97 S7        29.44F FOG
6HR MIN TEMP:  46; 6HR MAX TEMP:  49;

LA CROSSE WI   CLOUDY    51  49  92 S8        29.46F FOG
6HR MIN TEMP:  50; 6HR MAX TEMP:  51; 6HR PCP:  0.02;

$$

  *****  SOME NATIONAL WEATHER *****

CITY           SKY/WX    TMP DP  RH WIND       PRES   REMARKS
LA GUARDIA NY  PTSUNNY   54  25  32 CALM      30.14F
6HR MIN TEMP:  44; 6HR MAX TEMP:  54;

RALEIGH NC     LGT RAIN  53  46  77 SE3       30.11F
6HR MIN TEMP:  40; 6HR MAX TEMP:  54; 6HR PCP: TRACE;

ATLANTA GA     LGT RAIN  54  52  94 E16       29.83F FOG
6HR MIN TEMP:  49; 6HR MAX TEMP:  52; 6HR PCP:  0.89;

NEW ORLEANS LA PTSUNNY   71  60  68 SW22G31   29.68F
6HR MIN TEMP:  63; 6HR MAX TEMP:  70; 6HR PCP:  0.35;

OKLAHOMA CITY  MOSUNNY   61  48  63 W8        29.35F
6HR MIN TEMP:  54; 6HR MAX TEMP:  60;

ALBUQUERQUE NM PTSUNNY   46  21  37 NW29G39   29.89F
6HR MIN TEMP:  42; 6HR MAX TEMP:  47;

SALT LAKE CITY MOSUNNY   37  24  59 NW13      30.24R
6HR MIN TEMP:  31; 6HR MAX TEMP:  38; 6HR PCP:  0.01;

LOS ANGELES CA PTSUNNY   65  53  65 SE3       30.14S
6HR MIN TEMP:  57; 6HR MAX TEMP:  67;

BOISE ID       SUNNY     40  27  59 CALM      30.33R



USA.gov is the U.S. government's official web portal to all federal, state and local government web resources and services.